Home > Weather > Kalamaria > Past weeks

Flag for Greece Past Weather in Kalamaria, Greece — Yesterday and Last 2 Weeks

Now
81 °F

Sunny.


Feels Like: 82 °F
Forecast: 71 / 92 °F
Wind: 7 mph from West

Location: Thessaloniki Airport

Current Time: Jul 28, 2016 at 11:43:27 AM

Latest Report: Jul 28, 2016 at 10:50 AM


Visibility: 10 mi

Pressure: 29.95 "Hg

Humidity: 54%

Dew Point: 63 °F

Location of KalamariaLocation

Past Weather in Kalamaria — Graph

°F

Kalamaria Temperature Yesterday

Maximum temperature yesterday: 88 °F (at 6:50 PM)
Minimum temperature yesterday: 75 °F (at 7:20 AM)
Average temperature yesterday: 81 °F

High & Low Weather Summary for the Past Weeks

 TemperatureHumidityPressure
High97 °F (Jul 24, 3:50 PM)83% (Jul 14, 1:20 AM)30.07 "Hg (Jul 14, 1:20 AM)
Low63 °F (Jul 21, 6:50 AM)20% (Jul 24, 3:50 PM)29.62 "Hg (Jul 16, 2:20 AM)
Average81 °F49%29.87 "Hg
* Reported Jul 13 10:20 AM — Jul 28 10:20 AM, Kalamaria, Weather by CustomWeather, © 2016

Note: Actual official high and low records may vary slightly from our data, if they occured in-between our weather recording intervals... More about our weather records

Advertising

Kalamaria Weather History for the Previous 24 Hours

Scroll right to see more
 ConditionsComfort  
Time TempWeatherWind HumidityBarometerVisibility
10:20 AM
Thu, Jul 28
79 °FSunny.7 mph54%29.95 "Hg10 mi
9:50 AM79 °FSunny.6 mph58%29.95 "Hg10 mi
9:20 AM77 °FSunny.5 mph61%29.95 "Hg10 mi
8:50 AM77 °FSunny.3 mph79%29.95 "Hg10 mi
8:20 AM77 °FSunny.3 mph61%29.95 "Hg10 mi
7:50 AM75 °FSunny.3 mph65%29.92 "Hg10 mi
7:20 AM72 °FClear.3 mph65%29.92 "Hg10 mi
6:50 AM72 °FClear.3 mph57%29.92 "Hg10 mi
6:20 AM72 °FPassing clouds.2 mph57%29.92 "HgN/A
5:50 AM70 °FPassing clouds.3 mph60%29.92 "HgN/A
5:20 AM70 °FPassing clouds.3 mph60%29.92 "HgN/A
4:50 AM70 °FPassing clouds.3 mph57%29.92 "HgN/A
4:20 AM70 °FPassing clouds.2 mph60%29.92 "HgN/A
3:50 AM70 °FPassing clouds.3 mph60%29.92 "HgN/A
3:20 AM72 °FPassing clouds.3 mph53%29.92 "HgN/A
2:50 AM72 °FPassing clouds.3 mph57%29.92 "HgN/A
2:20 AM72 °FPassing clouds.6 mph53%29.92 "HgN/A
1:50 AM73 °FPassing clouds.3 mph50%29.92 "HgN/A
1:20 AM73 °FPassing clouds.2 mph50%29.92 "HgN/A
12:50 AM73 °FPassing clouds.6 mph50%29.92 "HgN/A
12:20 AM73 °FPassing clouds.6 mph53%29.92 "HgN/A
11:50 PM
Wed, Jul 27
75 °FPassing clouds.3 mph47%29.92 "HgN/A
11:20 PM75 °FPassing clouds.3 mph50%29.92 "HgN/A
10:50 PM81 °FPassing clouds.3 mph39%29.92 "HgN/A
10:20 PM79 °FPassing clouds.No wind42%29.92 "HgN/A
9:50 PM79 °FPassing clouds.2 mph42%29.89 "HgN/A
9:20 PM82 °FPassing clouds.3 mph35%29.89 "HgN/A
8:50 PM86 °FPassing clouds.6 mph31%29.89 "HgN/A
8:20 PM86 °FPassing clouds.7 mph31%29.89 "HgN/A
7:50 PM88 °FPassing clouds.5 mph29%29.89 "HgN/A
7:20 PM88 °FPassing clouds.3 mph29%29.89 "HgN/A
6:50 PM88 °FPassing clouds.5 mph29%29.89 "HgN/A
6:20 PM86 °FPassing clouds.7 mph46%29.89 "HgN/A
5:50 PM86 °FPassing clouds.10 mph46%29.89 "HgN/A
5:20 PM86 °FPassing clouds.10 mph46%29.89 "HgN/A
4:50 PM86 °FPassing clouds.9 mph43%29.89 "HgN/A
4:20 PM86 °FPassing clouds.10 mph43%29.89 "HgN/A
3:50 PM86 °FPassing clouds.10 mph43%29.92 "HgN/A
3:20 PM84 °FPassing clouds.10 mph48%29.92 "HgN/A
2:50 PM86 °FPassing clouds.12 mph49%29.92 "HgN/A
2:20 PM84 °FPassing clouds.12 mph51%29.92 "HgN/A
1:50 PM82 °FPassing clouds.13 mph55%29.92 "HgN/A
1:20 PM82 °FScattered clouds.14 mph55%29.95 "HgN/A
12:50 PM82 °FScattered clouds.14 mph55%29.95 "HgN/A
12:20 PM81 °FScattered clouds.16 mph58%29.95 "HgN/A
11:50 AM82 °FScattered clouds.15 mph55%29.95 "HgN/A
11:20 AM82 °FScattered clouds.12 mph58%29.95 "HgN/A
Weather by CustomWeather, © 2016

See weather overviewHow to use our weather pages